Location: Fond Mahaut
(18.0707°N, 63.0465°W)
Time: 14:16:04
(UTC+00:00)

Okean 3 - Pass Details

Date: 08 December 2019
Orbit: 577 x 600 km, 82.5° (Epoch: 19 January)

Event Time Altitude Azimuth Distance (km) Brightness Sun altitude
Rises 22:54:47 0° 180° (S) 2,810 7.2 -18.2°
Reaches altitude 10° 22:56:59 10° 179° (S) 1,907 6.3 -18.7°
Maximum altitude 23:01:11 74° 94° (E) 610 3.3 -19.6°
Enters shadow 23:02:57 34° 16° (NNE) 974 4.3 -20.0°
